Home   Weather   Paris 14   Past weeks
Flag for France

Past Weather in Paris 14, Paris, France — Yesterday and Last 2 Weeks

Now
75 °F

Scattered clouds.


Feels Like: 78 °F
Forecast: 91 / 62 °F
Wind: 6 mph from West

Location: Villacoublay

Current Time: Jul 21, 2019 at 3:00:41 pm

Latest Report: Jul 21, 2019 at 2:00 pm


Visibility: N/A

Pressure: 30.21 "Hg

Humidity: 50%

Dew Point: 55 °F

Location of Paris 14Location

Past Weather in Paris 14 — Graph

°F

Paris 14 Temperature Yesterday

Maximum temperature yesterday: 79 °F (at 1:00 pm)
Minimum temperature yesterday: 64 °F (at 5:30 am)
Average temperature yesterday: 71 °F

High & Low Weather Summary for the Past Weeks

 TemperatureHumidityPressure
High88 °F (Jul 6, 3:30 pm)100% (Jul 18, 10:00 pm)30.21 "Hg (Jul 18, 10:00 pm)
Low54 °F (Jul 15, 6:30 am)23% (Jul 17, 6:00 pm)29.86 "Hg (Jul 6, 4:00 pm)
Average69 °F58%30.03 "Hg
* Reported Jul 6 2:00 pm — Jul 21 2:00 pm, Paris 14. Weather by CustomWeather, © 2019

Note: Actual official high and low records may vary slightly from our data, if they occured in-between our weather recording intervals... More about our weather records

Advertising

Paris 14 Weather History for the Previous 24 Hours

Scroll right to see more
 ConditionsComfort  
Time TempWeatherWind HumidityBarometerVisibility
2:00 pm
Sun, Jul 21
75 °FScattered clouds.6 mph50%30.21 "HgN/A
1:30 pm75 °FPassing clouds.6 mph50%30.21 "HgN/A
1:00 pm73 °FPassing clouds.7 mph53%30.21 "HgN/A
12:30 pm72 °FPassing clouds.8 mph57%30.21 "HgN/A
12:00 pm70 °FPassing clouds.8 mph57%30.21 "HgN/A
11:30 am68 °FSunny.7 mph60%30.21 "Hg10 mi
11:00 am68 °FPassing clouds.8 mph64%30.21 "HgN/A
10:30 am66 °FPassing clouds.8 mph68%30.21 "HgN/A
10:00 am64 °FPassing clouds.7 mph73%30.21 "HgN/A
9:30 am64 °FPassing clouds.7 mph73%30.18 "HgN/A
9:00 am63 °FPassing clouds.5 mph83%30.18 "HgN/A
8:30 am63 °FSunny.7 mph83%30.18 "Hg10 mi
8:00 am61 °FPassing clouds.6 mph88%30.15 "HgN/A
7:30 am61 °FPassing clouds.3 mph88%30.15 "HgN/A
7:00 am59 °FScattered clouds.3 mph94%30.15 "HgN/A
6:30 am61 °FScattered clouds.5 mph88%30.15 "HgN/A
6:00 am59 °FPassing clouds.6 mph94%30.12 "HgN/A
5:30 am61 °FClear.8 mph94%30.12 "Hg10 mi
5:00 am61 °FPassing clouds.6 mph94%30.12 "HgN/A
4:30 am63 °FClear.6 mph88%30.09 "Hg10 mi
4:00 am63 °FPassing clouds.7 mph88%30.09 "HgN/A
3:30 am63 °FClear.8 mph88%30.09 "Hg10 mi
3:00 am64 °FPassing clouds.8 mph83%30.09 "HgN/A
2:30 am64 °FClear.6 mph88%30.09 "Hg10 mi
2:00 am64 °FClear.7 mph94%30.09 "Hg10 mi
1:30 am64 °FClear.8 mph94%30.07 "Hg10 mi
1:00 am66 °FClear.7 mph94%30.07 "Hg10 mi
12:30 am64 °FPassing clouds.7 mph100%30.07 "HgN/A
12:00 am66 °FPassing clouds.3 mph94%30.04 "HgN/A
11:30 pm
Sat, Jul 20
66 °FPassing clouds.2 mph94%30.04 "HgN/A
11:00 pm66 °FPartly cloudy.3 mph94%30.04 "HgN/A
10:30 pm66 °FLight rain. Partly cloudy.8 mph94%30.04 "Hg6 mi
10:00 pm70 °FPartly cloudy.3 mph78%30.01 "HgN/A
9:30 pm70 °FPassing clouds.3 mph78%30.01 "HgN/A
9:00 pm72 °FBroken clouds.9 mph78%29.98 "HgN/A
8:30 pm72 °FBroken clouds.9 mph78%29.98 "HgN/A
8:00 pm73 °FPassing clouds.9 mph74%29.98 "HgN/A
7:30 pm73 °FPassing clouds.8 mph74%29.95 "HgN/A
7:00 pm72 °FPassing clouds.7 mph73%29.95 "HgN/A
6:30 pm70 °FPartly sunny.12 mph78%29.98 "HgN/A
6:00 pm70 °FPartly sunny.15 mph83%29.95 "HgN/A
5:30 pm72 °FMild.7 mph73%29.95 "HgN/A
5:00 pm72 °FPartly sunny.9 mph73%29.95 "HgN/A
4:30 pm73 °FBroken clouds.12 mph61%29.95 "HgN/A
4:00 pm77 °FBroken clouds.13 mph54%29.92 "HgN/A
3:30 pm77 °FMore clouds than sun.14 mph54%29.92 "HgN/A
3:00 pm77 °FMore clouds than sun.15 mph54%29.92 "HgN/A
Weather by CustomWeather, © 2019

See weather overview